DLH2259 LFBD-EDDM

Flight info

Callsign DLH2259
Flight time N/A
Altitude 34000
Route OBLOC DCT SECHE DCT NARAK DCT DITEV DCT MEN DCT NINUN DCT LATAM DCT ETREK/N0416F300 DCT LTP DCT SOPLO DCT OMASI DCT KINNI/N0449F380 DCT SOSAL DCT KORED DCT BERSU N871 DITON/N0441F370 DCT NUNRI T103 BETOS BETOS1A
Aircraft A321/M-SDE2E3FGIJ1LORWXYZ/HB1

Departure

Time 2026-05-06 13:51
Airport Bordeaux–Mérignac Airport (LFBD)

Arrival

Time N/A
Airport Munich Airport (EDDM)
Time Latitude Longitude Altitude Speed Heading
2026-05-06 13:30 44.83186 -0.70360 165 ft 0 kts 134°
2026-05-06 13:42 44.83191 -0.70368 173 ft 4 kts 133°
2026-05-06 13:43 44.83208 -0.70394 173 ft 2 kts 133°
2026-05-06 13:43 44.83223 -0.70421 173 ft 4 kts 105°
2026-05-06 13:43 44.83221 -0.70454 173 ft 4 kts 54°
2026-05-06 13:43 44.83203 -0.70481 173 ft 4 kts 40°
2026-05-06 13:44 44.83194 -0.70492 173 ft 0 kts 45°
2026-05-06 13:45 44.83196 -0.70490 173 ft 2 kts 45°
2026-05-06 13:45 44.83231 -0.70440 173 ft 12 kts 45°
2026-05-06 13:46 44.83312 -0.70330 173 ft 19 kts 36°
2026-05-06 13:46 44.83402 -0.70320 173 ft 11 kts 27°
2026-05-06 13:46 44.83476 -0.70215 173 ft 17 kts 46°
2026-05-06 13:46 44.83564 -0.70089 173 ft 19 kts 45°
2026-05-06 13:47 44.83670 -0.70014 172 ft 12 kts 345°
2026-05-06 13:47 44.83691 -0.70025 171 ft 0 kts 337°
2026-05-06 13:50 44.83718 -0.70042 170 ft 10 kts 337°
2026-05-06 13:50 44.83786 -0.70091 171 ft 11 kts 321°
2026-05-06 13:50 44.83801 -0.70187 172 ft 12 kts 244°
2026-05-06 13:50 44.83781 -0.70223 171 ft 0 kts 225°
2026-05-06 13:51 44.83773 -0.70235 171 ft 9 kts 225°
2026-05-06 13:51 44.83527 -0.70590 172 ft 90 kts 225°
2026-05-06 13:51 44.82924 -0.71448 173 ft 154 kts 225°
2026-05-06 13:51 44.82146 -0.72548 801 ft 158 kts 229°
2026-05-06 13:52 44.81362 -0.73652 1573 ft 160 kts 231°
2026-05-06 13:52 44.80540 -0.74834 2000 ft 180 kts 230°
2026-05-06 13:52 44.79615 -0.76174 2355 ft 202 kts 230°
2026-05-06 13:52 44.78584 -0.77662 2638 ft 222 kts 231°
2026-05-06 13:53 44.77454 -0.79213 3232 ft 235 kts 223°
2026-05-06 13:53 44.75922 -0.80350 3622 ft 265 kts 199°
2026-05-06 13:53 44.74047 -0.80555 4323 ft 278 kts 175°
2026-05-06 13:53 44.72198 -0.79693 5146 ft 285 kts 150°
2026-05-06 13:54 44.70732 -0.77823 5969 ft 288 kts 124°
2026-05-06 13:54 44.69932 -0.75246 6757 ft 290 kts 101°
2026-05-06 13:54 44.69454 -0.72483 7548 ft 293 kts 107°
2026-05-06 13:54 44.68634 -0.69841 8318 ft 297 kts 120°
2026-05-06 13:55 44.67457 -0.67448 9082 ft 300 kts 124°
2026-05-06 13:55 44.66532 -0.64825 9871 ft 301 kts 107°
2026-05-06 13:55 44.66152 -0.61935 10546 ft 303 kts 91°
2026-05-06 13:55 44.66229 -0.58944 11002 ft 316 kts 84°
2026-05-06 13:56 44.66357 -0.55757 11164 ft 338 kts 86°
2026-05-06 13:56 44.66483 -0.52422 11639 ft 346 kts 85°
2026-05-06 13:56 44.66604 -0.49020 12227 ft 352 kts 85°
2026-05-06 13:56 44.66663 -0.45565 12887 ft 355 kts 94°
2026-05-06 13:57 44.66120 -0.42176 13548 ft 359 kts 107°
2026-05-06 13:57 44.65325 -0.38833 14138 ft 363 kts 108°
2026-05-06 13:57 44.64505 -0.35460 14717 ft 367 kts 108°
2026-05-06 13:57 44.63667 -0.32054 15354 ft 370 kts 108°
2026-05-06 13:58 44.62824 -0.28639 16013 ft 371 kts 108°
2026-05-06 13:58 44.61970 -0.25191 16577 ft 375 kts 108°
2026-05-06 13:58 44.61109 -0.21710 17101 ft 380 kts 108°
2026-05-06 13:58 44.60240 -0.18190 17689 ft 383 kts 108°
2026-05-06 13:59 44.59387 -0.14638 18285 ft 385 kts 107°
2026-05-06 13:59 44.58550 -0.11045 18766 ft 389 kts 107°
2026-05-06 13:59 44.57732 -0.07470 19244 ft 392 kts 106°
2026-05-06 13:59 44.56898 -0.03817 19763 ft 395 kts 106°
2026-05-06 14:00 44.56055 -0.00144 20275 ft 397 kts 107°
2026-05-06 14:00 44.55201 0.03557 20770 ft 400 kts 107°
2026-05-06 14:00 44.54335 0.07279 21248 ft 403 kts 107°
2026-05-06 14:00 44.53457 0.11026 21778 ft 407 kts 107°
2026-05-06 14:01 44.52567 0.14805 22329 ft 410 kts 107°
2026-05-06 14:01 44.51672 0.18599 22803 ft 412 kts 107°
2026-05-06 14:01 44.50771 0.22425 23259 ft 415 kts 107°
2026-05-06 14:01 44.49865 0.26270 23684 ft 417 kts 107°
2026-05-06 14:02 44.48952 0.30139 24079 ft 419 kts 107°
2026-05-06 14:02 44.48030 0.34028 24462 ft 422 kts 107°
2026-05-06 14:02 44.47103 0.37936 24866 ft 424 kts 107°
2026-05-06 14:02 44.46170 0.41861 25276 ft 426 kts 108°
2026-05-06 14:03 44.45231 0.45803 25656 ft 429 kts 108°
2026-05-06 14:03 44.44288 0.49773 26045 ft 431 kts 107°
2026-05-06 14:03 44.43598 0.53852 26415 ft 432 kts 98°
2026-05-06 14:03 44.43140 0.58013 26787 ft 434 kts 97°
2026-05-06 14:04 44.42680 0.62194 27153 ft 436 kts 97°
2026-05-06 14:04 44.42212 0.66401 27519 ft 438 kts 97°
2026-05-06 14:04 44.41738 0.70620 27863 ft 441 kts 98°
2026-05-06 14:04 44.41257 0.74880 28154 ft 445 kts 98°
2026-05-06 14:05 44.40774 0.79165 28489 ft 448 kts 99°
2026-05-06 14:05 44.40285 0.83480 28813 ft 451 kts 99°
2026-05-06 14:05 44.39792 0.87818 29147 ft 453 kts 99°
2026-05-06 14:05 44.39298 0.92179 29496 ft 455 kts 99°
2026-05-06 14:06 44.38800 0.96569 29826 ft 458 kts 99°
2026-05-06 14:06 44.38296 1.00979 30125 ft 460 kts 99°
2026-05-06 14:06 44.37784 1.05404 30388 ft 462 kts 99°
2026-05-06 14:06 44.37273 1.09793 30646 ft 465 kts 99°
2026-05-06 14:07 44.36746 1.14320 30893 ft 467 kts 99°
2026-05-06 14:07 44.36228 1.18747 31089 ft 470 kts 100°
2026-05-06 14:07 44.35696 1.23267 31312 ft 473 kts 100°
2026-05-06 14:07 44.35161 1.27806 31529 ft 475 kts 100°
2026-05-06 14:08 44.34623 1.32362 31794 ft 475 kts 100°
2026-05-06 14:08 44.34087 1.36909 32093 ft 475 kts 100°
2026-05-06 14:08 44.33551 1.41463 32384 ft 475 kts 100°
2026-05-06 14:08 44.33014 1.46009 32671 ft 475 kts 101°
2026-05-06 14:09 44.32473 1.50555 32938 ft 475 kts 101°
2026-05-06 14:09 44.31927 1.55101 33186 ft 475 kts 101°
2026-05-06 14:09 44.31376 1.59661 33418 ft 477 kts 101°
2026-05-06 14:09 44.30822 1.64228 33718 ft 477 kts 101°
2026-05-06 14:10 44.30269 1.68801 33912 ft 477 kts 101°
2026-05-06 14:10 44.29948 1.73355 33940 ft 468 kts 92°
2026-05-06 14:10 44.30777 1.82315 33938 ft 466 kts 77°
2026-05-06 14:11 44.32277 1.91175 33932 ft 466 kts 77°
2026-05-06 14:11 44.33743 1.99943 33941 ft 467 kts 78°
2026-05-06 14:12 44.35207 2.08792 33954 ft 468 kts 78°
2026-05-06 14:12 44.36671 2.17650 33963 ft 468 kts 78°
2026-05-06 14:13 44.38126 2.26512 33974 ft 468 kts 78°
2026-05-06 14:13 44.39573 2.35388 33963 ft 469 kts 78°
2026-05-06 14:14 44.41020 2.44289 33976 ft 470 kts 78°
2026-05-06 14:14 44.42461 2.53196 33979 ft 470 kts 78°
2026-05-06 14:15 44.43901 2.62116 33982 ft 470 kts 78°
2026-05-06 14:15 44.45325 2.71033 33957 ft 470 kts 79°
2026-05-06 14:16 44.46507 2.78526 33947 ft 471 kts 79°
2026-05-06 14:16 44.48029 2.87448 33931 ft 472 kts 72°
2026-05-06 14:17 44.50939 2.95596 33930 ft 472 kts 55°
2026-05-06 14:17 44.54635 3.03220 33937 ft 473 kts 56°
2026-05-06 14:18 44.58300 3.10887 33928 ft 473 kts 56°
2026-05-06 14:18 44.61915 3.18608 33944 ft 473 kts 58°
2026-05-06 14:19 44.65202 3.26601 33940 ft 472 kts 62°
2026-05-06 14:19 44.68311 3.34725 33939 ft 472 kts 62°
2026-05-06 14:20 44.71457 3.42828 33927 ft 472 kts 61°
2026-05-06 14:20 44.74670 3.50874 33927 ft 472 kts 60°
2026-05-06 14:21 44.77892 3.58915 33920 ft 472 kts 61°
2026-05-06 14:21 44.81101 3.66969 33924 ft 472 kts 61°
2026-05-06 14:22 44.84290 3.75042 33921 ft 471 kts 61°
2026-05-06 14:22 44.87470 3.83126 33894 ft 472 kts 61°
2026-05-06 14:23 44.90656 3.91231 33895 ft 473 kts 61°
2026-05-06 14:23 44.93845 3.99368 33906 ft 474 kts 62°
2026-05-06 14:24 44.97029 4.07528 33929 ft 474 kts 62°
2026-05-06 14:24 45.00196 4.15687 33928 ft 474 kts 62°
2026-05-06 14:25 45.03357 4.23852 33907 ft 474 kts 62°
2026-05-06 14:25 45.06528 4.32032 33903 ft 476 kts 62°
2026-05-06 14:26 45.09708 4.40266 33900 ft 477 kts 62°
2026-05-06 14:26 45.12883 4.48508 33931 ft 477 kts 62°
2026-05-06 14:27 45.16036 4.56708 33945 ft 476 kts 62°
2026-05-06 14:27 45.19196 4.64958 33916 ft 477 kts 62°
2026-05-06 14:28 45.22351 4.73239 33912 ft 478 kts 62°
2026-05-06 14:28 45.25502 4.81544 33932 ft 478 kts 62°
2026-05-06 14:29 45.28654 4.89859 33964 ft 478 kts 63°
2026-05-06 14:29 45.31800 4.98182 33967 ft 478 kts 63°
2026-05-06 14:30 45.34937 5.06496 33941 ft 477 kts 63°
2026-05-06 14:30 45.38046 5.14790 33941 ft 478 kts 63°
2026-05-06 14:31 45.41177 5.23172 33946 ft 478 kts 63°
2026-05-06 14:31 45.44301 5.31535 33951 ft 478 kts 63°
2026-05-06 14:32 45.47426 5.39900 33969 ft 478 kts 60°
2026-05-06 14:32 45.51553 5.47291 33937 ft 478 kts 42°
2026-05-06 14:33 45.56523 5.53593 33931 ft 479 kts 42°
2026-05-06 14:33 45.61486 5.59931 33930 ft 479 kts 42°
2026-05-06 14:34 45.66444 5.66299 33951 ft 479 kts 42°
2026-05-06 14:34 45.71400 5.72682 33949 ft 479 kts 42°
2026-05-06 14:35 45.76355 5.79054 33946 ft 479 kts 42°
2026-05-06 14:35 45.81312 5.85410 33957 ft 479 kts 42°
2026-05-06 14:36 45.86271 5.91783 33946 ft 478 kts 42°
2026-05-06 14:36 45.91181 5.98134 33937 ft 479 kts 43°
2026-05-06 14:37 45.96132 6.04560 33932 ft 480 kts 43°
2026-05-06 14:37 46.01097 6.11009 33962 ft 481 kts 42°
2026-05-06 14:38 46.06053 6.17467 33971 ft 480 kts 43°
2026-05-06 14:38 46.10971 6.23955 33969 ft 479 kts 44°
2026-05-06 14:39 46.15719 6.30667 33968 ft 477 kts 46°
2026-05-06 14:39 46.20392 6.37472 33969 ft 477 kts 46°
2026-05-06 14:40 46.25086 6.44235 33923 ft 477 kts 46°
2026-05-06 14:40 46.29822 6.50985 33914 ft 478 kts 45°
2026-05-06 14:41 46.34563 6.57754 33909 ft 479 kts 46°
2026-05-06 14:41 46.39301 6.64557 33918 ft 480 kts 46°
2026-05-06 14:42 46.44035 6.71388 33923 ft 480 kts 46°
2026-05-06 14:42 46.48770 6.78227 33930 ft 480 kts 46°
2026-05-06 14:43 46.53468 6.85109 33941 ft 480 kts 46°
2026-05-06 14:43 46.57946 6.92292 33900 ft 479 kts 52°
2026-05-06 14:44 46.62156 6.99822 33899 ft 481 kts 53°
2026-05-06 14:45 46.68462 7.11203 33910 ft 482 kts 53°
2026-05-06 14:45 46.72631 7.18767 33914 ft 482 kts 53°
2026-05-06 14:46 46.76825 7.26388 33917 ft 482 kts 53°
2026-05-06 14:46 46.81019 7.34028 33915 ft 482 kts 53°
2026-05-06 14:47 46.85213 7.41689 33876 ft 482 kts 53°
2026-05-06 14:47 46.89385 7.49331 33878 ft 483 kts 53°
2026-05-06 14:48 46.93565 7.57028 33899 ft 484 kts 53°
2026-05-06 14:48 46.97745 7.64737 33922 ft 482 kts 53°
2026-05-06 14:49 47.01889 7.72407 33928 ft 481 kts 53°
2026-05-06 14:49 47.06034 7.80126 33921 ft 480 kts 53°
2026-05-06 14:50 47.10171 7.87818 33914 ft 480 kts 53°
2026-05-06 14:50 47.14198 7.95603 33911 ft 476 kts 60°
2026-05-06 14:51 47.17702 8.03852 33915 ft 476 kts 60°
2026-05-06 14:51 47.21215 8.12090 33911 ft 475 kts 60°
2026-05-06 14:52 47.24727 8.20338 34007 ft 476 kts 60°
2026-05-06 14:52 47.26479 8.24468 34231 ft 478 kts 60°
2026-05-06 14:52 47.28241 8.28631 34470 ft 478 kts 60°
2026-05-06 14:52 47.29905 8.32864 34674 ft 477 kts 68°
2026-05-06 14:53 47.31152 8.37374 34838 ft 474 kts 76°
2026-05-06 14:53 47.33170 8.46638 34890 ft 475 kts 76°
2026-05-06 14:54 47.35206 8.55895 34892 ft 474 kts 76°
2026-05-06 14:54 47.37249 8.65145 34893 ft 474 kts 76°
2026-05-06 14:55 47.39283 8.74405 34895 ft 474 kts 76°
2026-05-06 14:55 47.41308 8.83693 34864 ft 477 kts 76°
2026-05-06 14:56 47.43329 8.93039 34858 ft 478 kts 76°
2026-05-06 14:56 47.45356 9.02415 34866 ft 480 kts 76°
2026-05-06 14:57 47.47378 9.11812 34867 ft 479 kts 76°
2026-05-06 14:57 47.49381 9.21209 34820 ft 479 kts 76°
2026-05-06 14:58 47.51377 9.30621 34820 ft 480 kts 77°
2026-05-06 14:58 47.52746 9.40160 34852 ft 468 kts 94°
2026-05-06 14:59 47.52850 9.48157 34857 ft 468 kts 95°
2026-05-06 14:59 47.52943 9.57791 34860 ft 469 kts 95°
2026-05-06 15:00 47.53021 9.67448 34829 ft 469 kts 95°
2026-05-06 15:00 47.53207 9.77122 34843 ft 471 kts 93°
2026-05-06 15:01 47.53470 9.86826 34839 ft 472 kts 93°
2026-05-06 15:01 47.53715 9.96534 34855 ft 472 kts 94°
2026-05-06 15:02 47.53918 10.06241 34863 ft 472 kts 94°
2026-05-06 15:02 47.54097 10.15960 34838 ft 472 kts 94°
2026-05-06 15:03 47.54271 10.25685 34854 ft 473 kts 94°
2026-05-06 15:03 47.54448 10.35410 34591 ft 473 kts 94°
2026-05-06 15:03 47.54537 10.40241 34361 ft 472 kts 94°
2026-05-06 15:04 47.54622 10.45092 34122 ft 470 kts 94°
2026-05-06 15:04 47.54740 10.49931 33840 ft 472 kts 90°
2026-05-06 15:04 47.55305 10.54738 33566 ft 477 kts 78°
2026-05-06 15:04 47.56453 10.59352 33266 ft 481 kts 67°
2026-05-06 15:05 47.58094 10.63666 33013 ft 481 kts 61°
2026-05-06 15:05 47.59812 10.67904 32742 ft 479 kts 61°
2026-05-06 15:05 47.61521 10.72130 32470 ft 477 kts 62°
2026-05-06 15:05 47.63216 10.76342 32210 ft 475 kts 62°
2026-05-06 15:06 47.64901 10.80545 31925 ft 473 kts 62°
2026-05-06 15:06 47.66583 10.84717 31668 ft 471 kts 59°
2026-05-06 15:06 47.68524 10.88621 31412 ft 471 kts 50°
2026-05-06 15:06 47.70817 10.92074 31161 ft 469 kts 41°
2026-05-06 15:07 47.73311 10.95065 30915 ft 465 kts 38°
2026-05-06 15:07 47.75867 10.98081 30661 ft 462 kts 38°
2026-05-06 15:07 47.78371 11.01050 30412 ft 459 kts 38°
2026-05-06 15:07 47.80858 11.04013 30102 ft 456 kts 38°
2026-05-06 15:08 47.83288 11.06917 29866 ft 453 kts 38°
2026-05-06 15:08 47.85736 11.09849 29483 ft 451 kts 38°
2026-05-06 15:08 47.88174 11.12766 28890 ft 446 kts 38°
2026-05-06 15:08 47.90586 11.15639 28369 ft 443 kts 38°
2026-05-06 15:09 47.92987 11.18494 27823 ft 440 kts 38°
2026-05-06 15:09 47.95372 11.21331 27285 ft 436 kts 38°
2026-05-06 15:09 47.97734 11.24144 26766 ft 433 kts 39°
2026-05-06 15:09 48.00074 11.26936 26242 ft 429 kts 39°
2026-05-06 15:10 48.02392 11.29707 25616 ft 424 kts 39°
2026-05-06 15:10 48.04683 11.32449 25004 ft 420 kts 39°
2026-05-06 15:10 48.06952 11.35161 24400 ft 416 kts 39°
2026-05-06 15:10 48.09198 11.37852 23822 ft 411 kts 39°
2026-05-06 15:11 48.11416 11.40513 23220 ft 407 kts 39°
2026-05-06 15:11 48.13614 11.43160 22537 ft 404 kts 39°
2026-05-06 15:11 48.15801 11.45799 21853 ft 403 kts 39°
2026-05-06 15:11 48.17983 11.48439 21205 ft 401 kts 39°
2026-05-06 15:12 48.20137 11.51051 20551 ft 396 kts 40°
2026-05-06 15:12 48.22040 11.53977 19893 ft 388 kts 55°
2026-05-06 15:12 48.23407 11.57369 19285 ft 374 kts 69°
2026-05-06 15:12 48.24210 11.61017 18683 ft 364 kts 83°
2026-05-06 15:13 48.24545 11.64737 18090 ft 358 kts 88°
2026-05-06 15:13 48.24827 11.68426 17418 ft 355 kts 87°
2026-05-06 15:13 48.25113 11.72079 16760 ft 351 kts 87°
2026-05-06 15:13 48.25398 11.75705 16111 ft 347 kts 87°
2026-05-06 15:14 48.25677 11.79281 15475 ft 343 kts 86°
2026-05-06 15:14 48.25951 11.82812 14853 ft 339 kts 86°
2026-05-06 15:14 48.26219 11.86306 14244 ft 335 kts 86°
2026-05-06 15:14 48.26483 11.89763 13644 ft 332 kts 86°
2026-05-06 15:15 48.26741 11.93187 12993 ft 328 kts 86°
2026-05-06 15:15 48.26993 11.96512 12678 ft 316 kts 86°
2026-05-06 15:15 48.27242 11.99801 12194 ft 319 kts 86°
2026-05-06 15:15 48.27490 12.03120 11675 ft 320 kts 86°
2026-05-06 15:16 48.27736 12.06445 11171 ft 321 kts 86°
2026-05-06 15:16 48.27983 12.09776 10648 ft 321 kts 88°
2026-05-06 15:16 48.28228 12.13100 10157 ft 321 kts 88°
2026-05-06 15:16 48.28474 12.16431 9674 ft 321 kts 88°
2026-05-06 15:17 48.28720 12.19763 9126 ft 321 kts 87°
2026-05-06 15:17 48.28964 12.23093 8611 ft 320 kts 87°
2026-05-06 15:17 48.29204 12.26404 8095 ft 315 kts 87°
2026-05-06 15:17 48.29485 12.29621 7588 ft 307 kts 78°
2026-05-06 15:18 48.30391 12.32478 7088 ft 304 kts 52°
2026-05-06 15:18 48.31997 12.34466 6613 ft 299 kts 26°
2026-05-06 15:18 48.33984 12.35185 6127 ft 293 kts 358°
2026-05-06 15:18 48.35915 12.34436 5620 ft 285 kts 329°
2026-05-06 15:19 48.37348 12.32488 5121 ft 276 kts 301°
2026-05-06 15:19 48.38001 12.29878 4945 ft 265 kts 275°
2026-05-06 15:19 48.37946 12.27172 4941 ft 255 kts 261°
2026-05-06 15:19 48.37751 12.24519 4930 ft 255 kts 262°
2026-05-06 15:20 48.37561 12.21888 4787 ft 253 kts 262°
2026-05-06 15:20 48.37370 12.19250 4638 ft 255 kts 261°
2026-05-06 15:20 48.37177 12.16599 4513 ft 256 kts 262°
2026-05-06 15:20 48.36981 12.13926 4363 ft 258 kts 262°
2026-05-06 15:21 48.36785 12.11257 4217 ft 256 kts 264°
2026-05-06 15:21 48.36590 12.08605 4087 ft 254 kts 264°
2026-05-06 15:21 48.36497 12.05973 3978 ft 251 kts 276°
2026-05-06 15:21 48.36961 12.03536 3985 ft 238 kts 291°
2026-05-06 15:22 48.37471 12.01256 3975 ft 224 kts 289°
2026-05-06 15:22 48.37880 11.99119 3856 ft 200 kts 282°
2026-05-06 15:22 48.37909 11.97150 3726 ft 178 kts 263°
2026-05-06 15:22 48.37701 11.95398 3615 ft 162 kts 258°
2026-05-06 15:23 48.37538 11.93752 3416 ft 157 kts 266°
2026-05-06 15:23 48.37450 11.92132 3120 ft 154 kts 264°
2026-05-06 15:23 48.37322 11.90548 2841 ft 151 kts 263°
2026-05-06 15:23 48.37199 11.88988 2552 ft 149 kts 264°